N5TSS Weather Reports


time (UTC)temp
C
wind
direction
speed
KPH
gust
KPH
rain 1hr
cm
rain 24hr
cm
rain mn
cm
humidity
%
barometer
mb
20260502130716 11 334 3.2 4.8 0.00 0.00 0.00 96 1021.8
20260502130214 11 338 1.6 3.2 0.00 0.00 0.00 96 1021.8
20260502123700 10 352 1.6 3.2 0.00 0.00 0.00 97 1021.1
20260502123156 10 241 0.0 0.0 0.00 0.00 0.00 97 1021.1
20260502122652 10 315 0.0 3.2 0.00 0.00 0.00 97 1020.8
20260502122149 10 347 1.6 3.2 0.00 0.00 0.00 96 1020.8
20260502121648 10 30 1.6 3.2 0.00 0.00 0.00 97 1020.8
20260502121145 10 325 1.6 3.2 0.00 0.00 0.00 97 1020.8
20260502120641 10 355 3.2 3.2 0.00 0.00 0.00 97 1020.8
20260502120138 10 73 0.0 3.2 0.00 0.00 0.00 96 1020.8
20260502115636 10 15 1.6 3.2 0.00 0.00 0.00 96 1020.8
20260502115131 10 50 0.0 0.0 0.00 0.00 0.00 96 1020.8
20260502114627 10 25 0.0 0.0 0.00 0.00 0.00 96 1020.8
20260502114125 10 355 3.2 3.2 0.00 0.00 0.00 96 1020.4
20260502113622 10 23 1.6 3.2 0.00 0.00 0.00 96 1020.8
20260502113121 10 338 0.0 0.0 0.00 0.00 0.00 97 1020.4
20260502112618 10 338 0.0 3.2 0.00 0.00 0.00 97 1020.4
20260502112115 10 338 0.0 0.0 0.00 0.00 0.00 96 1020.4
20260502111613 10 325 1.6 3.2 0.00 0.00 0.00 97 1020.4
20260502111110 10 296 0.0 1.6 0.00 0.00 0.00 97 1020.1
20260502110608 10 252 1.6 3.2 0.00 0.00 0.00 97 1020.1
20260502110105 10 338 1.6 3.2 0.00 0.00 0.00 96 1019.7
20260502105602 10 292 3.2 3.2 0.00 0.00 0.00 96 1019.7
20260502105059 10 356 1.6 3.2 0.00 0.00 0.00 96 1019.7
20260502104556 10 238 0.0 0.0 0.00 0.00 0.00 96 1019.7
20260502104054 10 53 0.0 1.6 0.00 0.00 0.00 96 1019.7
20260502103552 10 313 1.6 3.2 0.00 0.00 0.00 96 1019.7
20260502103050 10 321 1.6 3.2 0.00 0.00 0.00 96 1019.7
20260502102545 10 308 3.2 4.8 0.00 0.00 0.00 97 1019.7
20260502102043 10 338 1.6 4.8 0.00 0.00 0.00 97 1019.7
20260502101541 10 255 1.6 3.2 0.00 0.00 0.00 97 1019.7
20260502101039 10 319 3.2 4.8 0.00 0.00 0.00 97 1019.7
20260502100537 10 309 3.2 4.8 0.00 0.00 0.00 97 1019.7
20260502091512 10 320 4.8 6.4 0.00 0.00 0.00 96 1019.1
20260502091009 10 336 3.2 4.8 0.00 0.00 0.00 96 1018.7
20260502090505 10 316 4.8 6.4 0.00 0.00 0.00 96 1018.7
20260502071400 11 260 3.2 3.2 0.00 0.00 0.00 93 1018.7
20260502070858 11 296 3.2 3.2 0.00 0.00 0.00 93 1018.7
20260502070356 11 247 3.2 4.8 0.00 0.00 0.00 93 1018.4
20260502065855 11 352 3.2 4.8 0.00 0.00 0.00 92 1018.4
20260502065352 11 1 0.0 3.2 0.00 0.00 0.00 92 1018.4
20260502064850 11 317 3.2 6.4 0.00 0.00 0.00 92 1018.4
20260502064348 11 260 1.6 1.6 0.00 0.00 0.00 93 1018.4
20260502063844 12 323 3.2 4.8 0.00 0.00 0.00 93 1018.7
20260502063342 12 258 0.0 3.2 0.00 0.00 0.00 93 1018.7
20260502062839 12 320 1.6 3.2 0.00 0.00 0.00 92 1018.7
20260502062337 12 100 3.2 4.8 0.00 0.00 0.00 91 1018.7
20260502061836 12 110 1.6 3.2 0.00 0.00 0.00 92 1018.7
20260502061333 12 249 3.2 3.2 0.00 0.00 0.00 91 1018.7
20260502060829 12 214 1.6 3.2 0.00 0.00 0.00 92 1018.7
20260502060324 12 247 1.6 3.2 0.00 0.00 0.00 92 1018.7
20260502055822 12 285 3.2 6.4 0.00 0.00 0.00 92 1018.4
20260502055320 12 279 3.2 8.0 0.00 0.00 0.00 92 1018.7
20260502054819 12 323 3.2 3.2 0.00 0.00 0.00 92 1018.4
20260502054316 12 323 3.2 3.2 0.00 0.00 0.00 92 1018.4
20260502053813 12 246 1.6 3.2 0.00 0.00 0.00 92 1018.4
20260502053310 12 279 1.6 4.8 0.00 0.00 0.00 92 1018.4
20260502052808 12 8 1.6 6.4 0.00 0.00 0.00 92 1018.7
20260502052306 12 243 0.0 0.0 0.00 0.00 0.00 92 1018.4
20260502051804 12 15 3.2 8.0 0.00 0.00 0.00 91 1018.4
20260502051302 12 62 3.2 6.4 0.00 0.00 0.00 91 1018.4
20260502050758 12 346 3.2 9.7 0.00 0.00 0.00 91 1018.4
20260502050254 12 302 3.2 6.4 0.00 0.00 0.00 92 1018.4
20260502045752 12 329 3.2 3.2 0.00 6.12 6.12 92 1018.4
20260502045248 12 345 1.6 4.8 0.00 6.12 6.12 92 1018.4
20260502044745 12 127 1.6 4.8 0.00 6.12 6.12 92 1018.7
20260502044241 12 60 6.4 9.7 0.00 6.12 6.12 92 1018.7
20260502043739 12 74 1.6 4.8 0.00 6.12 6.12 93 1018.4
20260502043236 12 302 3.2 6.4 0.00 6.12 6.12 93 1018.4
20260502042735 12 323 4.8 4.8 0.00 6.12 6.12 93 1018.4
20260502042233 12 327 3.2 4.8 0.00 6.12 6.12 93 1018.4
20260502041731 12 323 4.8 8.0 0.00 6.12 6.12 93 1018.4
20260502041228 12 10 3.2 6.4 0.00 6.12 6.12 93 1018.4
20260502040725 12 355 6.4 11.3 0.00 6.12 6.12 94 1018.7
20260502040221 12 331 3.2 8.0 0.00 6.12 6.12 94 1018.4
20260502035717 12 334 3.2 6.4 0.00 6.12 6.12 94 1018.4
20260502035215 12 298 3.2 4.8 0.00 6.12 6.12 94 1018.4
20260502034712 12 327 4.8 6.4 0.00 6.12 6.12 93 1018.4
20260502034210 12 40 0.0 6.4 0.00 6.12 6.12 94 1018.4
20260502033708 12 202 1.6 3.2 0.00 6.12 6.12 94 1018.4
20260502033206 12 0 3.2 4.8 0.00 6.12 6.12 94 1018.0
20260502032702 12 63 4.8 6.4 0.00 6.12 6.12 94 1018.0
20260502032157 12 23 4.8 8.0 0.00 6.12 6.12 94 1018.4
20260502031656 12 82 1.6 6.4 0.00 6.12 6.12 94 1018.0
20260502031153 12 327 4.8 9.7 0.00 6.12 6.12 94 1018.0
20260502030652 12 45 4.8 11.3 0.00 6.12 6.12 94 1018.0
20260502030150 12 334 4.8 6.4 0.00 6.12 6.12 94 1017.7
20260502025646 12 358 3.2 6.4 0.00 6.12 6.12 94 1017.7
20260502025144 12 332 3.2 4.8 0.00 6.12 6.12 94 1017.3
20260502024642 12 286 4.8 8.0 0.00 6.12 6.12 94 1017.3
20260502024140 12 29 3.2 8.0 0.00 6.12 6.12 94 1016.9
20260502023638 12 1 3.2 6.4 0.00 6.12 6.12 94 1016.6
20260502023135 12 1 3.2 6.4 0.00 6.12 6.12 94 1016.6
20260502022632 12 28 3.2 6.4 0.00 6.12 6.12 94 1016.6
20260502022129 13 34 4.8 6.4 0.00 6.12 6.12 94 1016.6
20260502021626 13 74 3.2 11.3 0.00 6.12 6.12 94 1016.6
20260502021123 13 355 3.2 4.8 0.00 6.12 6.12 95 1016.6
20260502020621 12 29 1.6 4.8 0.00 6.12 6.12 94 1016.6
20260502020117 12 311 3.2 6.4 0.00 6.12 6.12 94 1016.6
20260502015615 13 58 6.4 9.7 0.00 6.12 6.12 95 1016.6
20260502015111 13 83 3.2 4.8 0.00 6.12 6.12 94 1016.6
20260502014609 13 324 3.2 4.8 0.00 6.12 6.12 95 1016.6
20260502014106 13 317 3.2 4.8 0.00 6.10 6.10 95 1016.3
20260502013600 13 300 3.2 6.4 0.00 6.10 6.10 95 1016.3
20260502013057 13 9 3.2 6.4 0.00 6.10 6.10 95 1016.3
20260502012555 13 336 1.6 3.2 0.00 6.10 6.10 95 1016.3
20260502012053 13 311 3.2 4.8 0.00 6.10 6.10 95 1016.3
20260502011549 13 302 3.2 4.8 0.00 6.10 6.10 95 1016.3
20260502011045 13 60 6.4 11.3 0.00 6.10 6.10 95 1015.9
20260502010543 13 311 3.2 4.8 0.00 6.10 6.10 95 1015.9
20260502010039 13 342 4.8 8.0 0.00 6.10 6.10 94 1015.9
20260502005537 13 302 3.2 6.4 0.00 6.10 6.10 94 1015.6
20260502005034 13 321 4.8 8.0 0.00 6.10 6.10 94 1015.9
20260502004530 13 336 3.2 4.8 0.00 6.07 6.07 94 1015.9
20260502004027 13 342 4.8 11.3 0.00 6.07 6.07 95 1015.9
20260502003525 13 325 3.2 4.8 0.00 6.07 6.07 94 1016.3
20260502003021 13 303 4.8 6.4 0.00 6.07 6.07 94 1016.3
20260502002518 13 332 4.8 6.4 0.00 6.05 6.05 94 1015.9
20260502002015 13 332 4.8 8.0 0.00 6.05 6.05 94 1015.6
20260502001513 13 35 3.2 4.8 0.00 6.05 6.05 94 1015.6
20260502001010 13 332 4.8 8.0 0.00 6.02 6.02 94 1015.6
20260502000508 13 329 4.8 6.4 0.00 6.02 6.02 94 1015.2
20260502000005 13 330 4.8 6.4 0.00 5.99 5.99 94 1015.2
20260501235500 13 42 6.4 14.5 0.00 5.97 5.97 94 1015.2
20260501234955 13 309 3.2 6.4 1.19 5.92 5.92 94 1015.2
20260501234452 13 308 3.2 4.8 0.00 5.89 5.89 94 1015.2
20260501233951 13 45 1.6 3.2 0.00 5.84 5.84 94 1015.2
20260501233448 14 144 3.2 4.8 0.00 5.84 5.84 94 1015.2
20260501232944 14 345 1.6 4.8 0.00 5.82 5.82 94 1014.9
20260501232441 14 295 3.2 8.0 0.00 5.82 5.82 94 1014.6
20260501231938 14 280 3.2 6.4 1.19 5.77 5.77 93 1013.5
20260501231437 14 313 4.8 8.0 1.19 5.74 5.74 94 1013.2
20260501230934 14 61 3.2 4.8 0.00 5.74 5.74 93 1013.2
20260501230433 14 325 3.2 6.4 0.00 5.69 5.69 93 1013.5
20260501225930 14 10 1.6 3.2 0.00 5.64 5.64 93 1013.9
20260501225428 15 68 1.6 3.2 1.19 5.56 5.56 93 1014.2
20260501224923 15 352 4.8 6.4 0.00 5.56 5.56 93 1014.2
20260501224421 15 270 1.6 4.8 0.00 5.56 5.56 93 1013.2
20260501223918 15 44 3.2 8.0 0.00 5.56 5.56 93 1012.5
20260501223414 15 327 4.8 8.0 0.00 5.56 5.56 93 1012.2
20260501222910 15 267 4.8 8.0 0.00 5.56 5.56 93 1011.9
20260501222408 15 30 3.2 4.8 0.00 5.56 5.56 93 1012.2
20260501221903 15 307 1.6 4.8 0.00 5.54 5.54 94 1012.5
20260501221401 15 36 1.6 3.2 0.00 5.51 5.51 94 1013.2
20260501220859 15 54 6.4 11.3 0.00 5.49 5.49 94 1012.9
20260501220356 15 91 1.6 4.8 1.19 5.44 5.44 94 1012.9
20260501215852 15 106 1.6 3.2 0.00 5.41 5.41 94 1013.2
20260501215348 15 50 3.2 11.3 1.19 5.33 5.33 94 1014.2
20260501214844 15 323 4.8 6.4 0.00 5.33 5.33 94 1014.9
20260501214340 15 309 3.2 4.8 1.19 5.31 5.31 93 1014.2
20260501213836 15 298 4.8 8.0 1.19 5.28 5.28 93 1013.5
20260501213332 15 157 1.6 3.2 0.00 5.23 5.23 94 1013.2
20260501212828 15 48 3.2 4.8 1.19 5.13 5.13 94 1013.9
20260501212325 15 302 0.0 3.2 0.00 5.11 5.11 94 1014.2
20260501211822 15 272 3.2 6.4 0.00 5.11 5.11 94 1013.5
20260501211320 15 280 6.4 9.7 0.00 5.08 5.08 94 1013.2
20260501210816 15 320 6.4 12.9 0.00 5.08 5.08 94 1012.9
20260501210314 15 49 3.2 6.4 0.00 5.05 5.05 94 1012.9
20260501205810 15 297 6.4 9.7 1.19 4.98 4.98 93 1012.5
20260501205307 15 68 3.2 4.8 0.00 4.95 4.95 94 1012.2
20260501204803 15 77 1.6 3.2 0.00 4.95 4.95 94 1013.2
20260501204300 15 219 4.8 11.3 0.00 4.95 4.95 94 1012.9
20260501203756 15 316 3.2 6.4 0.00 4.95 4.95 94 1012.5
20260501203254 15 325 3.2 4.8 1.19 4.93 4.93 94 1012.9
20260501202751 15 131 1.6 4.8 0.00 4.93 4.93 94 1012.5
20260501202247 15 80 3.2 6.4 0.00 4.93 4.93 94 1012.9
20260501201744 15 52 1.6 4.8 1.19 4.90 4.90 94 1013.2
20260501201241 15 10 6.4 12.9 0.00 4.88 4.88 94 1013.2
20260501200738 15 290 4.8 6.4 0.00 4.83 4.83 94 1013.2
20260501200235 15 36 4.8 8.0 0.00 4.75 4.75 94 1013.2
20260501195732 15 351 3.2 3.2 0.00 4.70 4.70 93 1013.5
20260501195228 16 104 3.2 4.8 0.00 4.67 4.67 93 1012.9
20260501194725 16 338 3.2 3.2 0.00 4.65 4.65 93 1013.2
20260501194220 16 318 4.8 6.4 0.00 4.65 4.65 92 1013.5
20260501193717 16 154 0.0 1.6 0.00 4.65 4.65 92 1013.2
20260501193216 16 24 3.2 4.8 0.00 4.65 4.65 92 1013.2
20260501192713 16 327 4.8 6.4 0.00 4.65 4.65 92 1013.2
20260501192210 16 321 1.6 3.2 0.00 4.65 4.65 92 1013.2
20260501191707 16 119 1.6 3.2 0.00 4.65 4.65 92 1012.9
20260501191204 16 321 3.2 9.7 0.00 4.65 4.65 92 1012.2
20260501190700 16 280 3.2 6.4 0.00 4.65 4.65 91 1011.9
20260501190156 16 262 1.6 6.4 0.00 4.65 4.65 91 1012.2
20260501185652 16 168 1.6 3.2 0.00 4.65 4.65 91 1011.9
20260501185148 16 87 3.2 8.0 0.00 4.65 4.65 91 1011.5
20260501184644 16 137 3.2 4.8 0.00 4.65 4.65 91 1011.2
20260501184139 16 57 3.2 8.0 0.00 4.65 4.65 92 1011.2
20260501183636 16 41 6.4 14.5 0.00 4.65 4.65 91 1010.8
20260501183132 16 131 6.4 11.3 0.00 4.65 4.65 91 1010.8
20260501182629 16 347 6.4 9.7 0.00 4.65 4.65 91 1010.5
20260501182126 16 325 3.2 6.4 0.00 4.65 4.65 92 1010.2
20260501181623 16 358 4.8 11.3 0.00 4.65 4.65 93 1010.2
20260501181120 16 98 1.6 3.2 0.00 4.65 4.65 93 1010.2
20260501180618 16 356 4.8 9.7 0.00 4.65 4.65 92 1010.5
20260501180114 16 71 6.4 12.9 0.00 4.65 4.65 92 1010.8
20260501175611 16 57 3.2 6.4 0.00 4.65 4.65 92 1011.5
20260501175108 16 278 3.2 6.4 0.00 4.65 4.65 92 1012.2
20260501174604 16 343 3.2 6.4 0.00 4.65 4.65 93 1012.5
20260501174102 16 130 3.2 8.0 0.00 4.65 4.65 93 1013.2
20260501173559 16 0 1.6 3.2 0.00 4.62 4.62 93 1013.5
20260501173055 16 332 3.2 9.7 0.00 4.62 4.62 93 1013.5
20260501172551 16 180 3.2 11.3 0.00 4.62 4.62 93 1013.5
20260501172047 16 294 4.8 6.4 0.00 4.62 4.62 93 1013.2
20260501171543 16 336 3.2 6.4 0.00 4.62 4.62 93 1013.5
20260501171040 16 305 3.2 8.0 0.00 4.62 4.62 93 1013.5
20260501170537 16 114 3.2 4.8 0.00 4.62 4.62 93 1013.5
20260501170034 16 309 3.2 4.8 0.00 4.62 4.62 93 1013.9
20260501165532 16 23 6.4 12.9 0.00 4.62 4.62 93 1013.9
20260501165029 16 329 3.2 8.0 0.00 4.62 4.62 93 1014.2
20260501164527 16 17 4.8 9.7 0.00 4.62 4.62 93 1014.2
20260501164023 16 327 3.2 6.4 0.00 4.62 4.62 93 1014.6
20260501163520 16 318 3.2 4.8 0.00 4.62 4.62 93 1014.9
20260501163017 16 80 0.0 0.0 0.00 4.62 4.62 93 1015.2
20260501162513 16 281 0.0 1.6 0.00 4.60 4.60 93 1015.2
20260501162010 16 87 1.6 3.2 0.00 4.60 4.60 93 1015.6
20260501161507 16 93 0.0 3.2 0.00 4.57 4.57 94 1015.9
20260501161004 16 68 1.6 4.8 0.00 4.57 4.57 94 1015.9
20260501160501 16 60 4.8 9.7 0.00 4.57 4.57 94 1015.6
20260501155957 16 65 0.0 1.6 0.00 4.55 4.55 94 1015.9
20260501155454 16 65 3.2 6.4 0.00 4.52 4.52 94 1016.3
20260501154951 16 25 3.2 6.4 0.00 4.52 4.52 94 1016.3
20260501154449 16 39 1.6 3.2 0.00 4.50 4.50 94 1015.6
20260501153945 16 285 3.2 3.2 0.00 4.50 4.50 94 1015.2
20260501153443 16 287 3.2 4.8 0.00 4.47 4.47 94 1015.2
20260501152944 16 332 3.2 8.0 0.00 4.47 4.47 94 1015.2
20260501152442 15 315 4.8 6.4 0.00 4.47 4.47 94 1014.9
20260501151939 16 305 4.8 8.0 0.00 4.47 4.47 94 1014.9
20260501151436 16 316 4.8 6.4 0.00 4.45 4.45 94 1014.6
20260501150932 16 324 3.2 6.4 0.00 4.45 4.45 94 1014.6
20260501150427 16 356 3.2 6.4 0.00 4.45 4.45 93 1014.6
20260501145924 16 80 4.8 8.0 0.00 4.45 4.45 93 1014.2
20260501145421 16 33 6.4 8.0 0.00 4.45 4.45 93 1014.2
20260501144919 16 346 3.2 6.4 0.00 4.45 4.45 93 1014.6
20260501144414 16 284 3.2 4.8 0.00 4.45 4.45 94 1014.6
20260501143910 16 280 3.2 6.4 0.00 4.45 4.45 95 1014.2
20260501143407 16 105 0.0 3.2 0.00 4.45 4.45 95 1014.2
20260501142903 15 31 3.2 6.4 1.19 4.39 4.39 95 1014.6
20260501142400 15 56 1.6 3.2 0.00 4.37 4.37 95 1014.6
20260501141856 15 54 0.0 0.0 1.19 4.32 4.32 95 1015.2
20260501141352 15 91 0.0 0.0 0.00 4.32 4.32 94 1015.9
20260501140851 15 329 3.2 6.4 0.00 4.29 4.29 95 1015.9
20260501140346 15 208 1.6 3.2 0.00 4.27 4.27 95 1015.9
20260501135843 15 29 3.2 4.8 1.19 4.22 4.22 95 1015.2
20260501135341 15 46 3.2 6.4 0.00 4.19 4.19 95 1015.2
20260501134838 15 30 0.0 3.2 1.19 4.11 4.11 95 1015.2
20260501134334 15 49 1.6 3.2 0.00 4.09 4.09 95 1015.2